This demonstration page uses our WeatherBlox Daily Observations layout. Learn more.

Left ArrowRight Arrow

Hourly Observations for September 8, 2018

Temp ( °F °C ) Dew Point ( °F °C ) Humidity (%) Winds ( mph kmh ) Pressure ( in mb ) Visibility ( mi km ) Precip ( " mm )
12:30 am 00:30 Cloudy 61 16 59 15 94 94 E 9 15 30.21 1023 10 16 0.01 0.25
12:57 am 00:57 Cloudy 61 16.1 59 15 93 93 ENE 9 15 30.19 1022 10 16 0.01 0.25
1:38 am 01:38 Cloudy 61 16 59 15 94 94 ENE 6 9 30.21 1023 10 16 0.00 0.00
1:57 am 01:57 Cloudy 60 15.6 59 15 96 96 ENE 7 11 30.19 1022 10 16 0.00 0.00
2:13 am 02:13 Cloudy 61 16 59 15 94 94 ENE 8 13 30.18 1022 8 13 0.00 0.00
2:30 am 02:30 Cloudy 61 16 57 14 88 88 E 7 11 30.18 1022 8 13 0.00 0.00
2:57 am 02:57 Cloudy 60 15.6 58 14.4 93 93 E 6 9 30.18 1022 10 16 0.00 0.00
3:48 am 03:48 Cloudy 61 16 57 14 88 88 ENE 7 11 30.18 1022 10 16 0.00 0.00
3:57 am 03:57 Cloudy 60 15.6 58 14.4 93 93 NE 6 9 30.16 1022 10 16 0.00 0.00
4:09 am 04:09 Cloudy 61 16 57 14 88 88 ENE 6 9 30.18 1022 10 16 0.00 0.00
4:57 am 04:57 Cloudy 60 15.6 57 13.9 90 90 ENE 6 9 30.16 1021 10 16 0.00 0.00
5:40 am 05:40 Cloudy 59 15 57 14 94 94 ENE 7 11 30.15 1021 10 16 0.00 0.00
5:57 am 05:57 Cloudy 59 15 57 13.9 93 93 ENE 6 9 30.16 1021 10 16 0.00 0.00
6:38 am 06:38 Cloudy with Mist and Fog 57 14 57 14 100 100 E 5 7 30.15 1021 5 8 0.00 0.00
6:57 am 06:57 Cloudy 58 14.4 57 13.9 97 97 ENE 6 9 30.15 1021 7 11 0.00 0.00
7:57 am 07:57 Cloudy 59 15 57 13.9 93 93 ENE 7 11 30.16 1022 10 16 0.00 0.00
8:15 am 08:15 Cloudy 59 15 57 14 94 94 ENE 7 11 30.15 1021 10 16 0.00 0.00
8:57 am 08:57 Cloudy with Mist and Fog 59 15 58 14.4 96 96 E 7 11 30.16 1021 3 4 0.00 0.00
9:00 am 09:00 Cloudy with Mist and Fog 59 15 57 14 94 94 E 7 11 30.15 1021 3 5 0.00 0.00
9:57 am 09:57 Cloudy with Mist and Fog 61 16.1 59 15 93 93 E 5 7 30.16 1021 6 10 0.00 0.00
10:57 am 10:57 Cloudy 63 17.2 60 15.6 90 90 NE 5 7 30.16 1021 10 16 0.00 0.00
11:34 am 11:34 Cloudy 64 18 61 16 88 88 VRB 3 6 30.12 1020 10 16 0.00 0.00
11:57 am 11:57 Cloudy 66 18.9 60 15.6 81 81 E 6 9 30.15 1021 10 16 0.00 0.00
12:57 pm 12:57 Cloudy 68 20 61 16.1 78 78 E 9 15 30.12 1020 10 16 0.00 0.00
1:57 pm 13:57 Cloudy 69 20.6 61 16.1 76 76 E 9 15 30.11 1020 10 16 0.00 0.00
2:57 pm 14:57 Cloudy 70 21.1 62 16.7 76 76 ESE 10 17 30.09 1019 10 16 0.00 0.00
3:57 pm 15:57 Cloudy 69 20.6 62 16.7 78 78 ESE 9 15 30.09 1019 10 16 0.00 0.00
4:27 pm 16:27 Cloudy 70 21 61 16 73 73 ESE 9 15 30.03 1017 10 16 0.00 0.00
4:46 pm 16:46 Cloudy 70 21 61 16 73 73 E 9 15 30.03 1017 10 16 0.00 0.00
4:54 pm 16:54 Mostly Cloudy 70 21 61 16 73 73 ESE 8 13 30.03 1017 10 16 0.00 0.00
4:57 pm 16:57 Mostly Cloudy 69 20.6 60 15.6 73 73 ESE 7 11 30.07 1018 10 16 0.00 0.00
5:34 pm 17:34 Mostly Cloudy 72 22 61 16 69 69 SE 10 17 30.00 1016 10 16 0.00 0.00
5:57 pm 17:57 Cloudy 72 22.2 62 16.7 71 71 ESE 10 17 30.06 1018 10 16 0.00 0.00
6:57 pm 18:57 Partly Cloudy 70 21.1 62 16.7 76 76 ESE 8 13 30.04 1017 10 16 0.00 0.00
7:57 pm 19:57 Sunny 66 18.9 62 16.7 87 87 SE 7 11 30.04 1017 10 16 0.00 0.00
8:57 pm 20:57 Mostly Clear 64 17.8 61 16.1 90 90 SE 7 11 30.05 1018 10 16 0.00 0.00
9:42 pm 21:42 Mostly Cloudy 64 18 63 17 94 94 ESE 8 13 30.03 1017 10 16 0.00 0.00
9:52 pm 21:52 Partly Cloudy 63 17 61 16 94 94 ESE 8 13 30.03 1017 10 16 0.00 0.00
9:57 pm 21:57 Mostly Clear 63 17.2 61 16.1 93 93 ESE 9 15 30.07 1018 10 16 0.00 0.00
10:37 pm 22:37 Mostly Cloudy 63 17 61 16 94 94 ESE 7 11 30.03 1017 10 16 0.00 0.00
10:51 pm 22:51 Partly Cloudy 63 17 61 16 94 94 SE 8 13 30.03 1017 10 16 0.00 0.00
10:57 pm 22:57 Mostly Clear 62 16.7 61 16.1 96 96 SE 7 11 30.07 1018 10 16 0.00 0.00
11:33 pm 23:33 Partly Cloudy 61 16 61 16 100 100 SE 8 13 30.06 1018 10 16 0.00 0.00
11:45 pm 23:45 Mostly Cloudy 61 16 61 16 100 100 SE 8 13 30.06 1018 10 16 0.00 0.00
11:57 pm 23:57 Mostly Cloudy 61 16.1 60 15.6 97 97 SE 7 11 30.07 1018 10 16 0.00 0.00

Powered by AerisWeather